Simultaneous Nadir Overpasses (SNOs) Predictions

Prediction of SNOs between NOAA-20 and NOAA-19 Satellite Orbit:

Table of predicted SNOs for the next 14.0 days since TLE Epoch: 7/8/2023
Index Date (NOAA-20) Time (NOAA-20) Lat,Lon (NOAA-20) SZA (NOAA-20 ) Date (NOAA-19) Time (NOAA-19) Lat,Lon (NOAA-19) SZA (NOAA-19 ) Distance(km) Time Diff (sec)
1 07/18/2023 01:05:12 -74.83, -29.07 125.82 07/18/2023 01:04:00 -74.78, -30.29 125.74 35.96 72
2 07/18/2023 01:56:02 75.04, 137.64 54.45 07/18/2023 01:54:58 75.01, 137.62 54.44 3.82 64
3 07/18/2023 02:46:46 -75.02, -54.99 125.58 07/18/2023 02:45:54 -75.02, -55.09 125.56 2.83 52
4 07/18/2023 03:37:32 75.05, 112.25 54.46 07/18/2023 03:36:56 75.05, 112.27 54.48 0.93 36
5 07/18/2023 04:28:17 -75.07, -80.51 125.50 07/18/2023 04:27:52 -75.06, -80.44 125.51 2.49 25
6 07/18/2023 05:19:02 75.05, 86.86 54.48 07/18/2023 05:18:55 75.05, 86.77 54.49 2.71 7
7 07/18/2023 06:09:47 -75.08,-105.90 125.49 07/18/2023 06:09:51 -75.06,-105.94 125.50 2.07 4
8 07/18/2023 07:00:33 75.10, 61.34 54.55 07/18/2023 07:00:53 75.10, 61.42 54.54 2.27 20
9 07/18/2023 07:51:17 -75.08,-131.29 125.47 07/18/2023 07:51:49 -75.11,-131.29 125.45 2.81 32
10 07/18/2023 08:42:03 75.11, 35.95 54.57 07/18/2023 08:42:52 75.10, 35.92 54.55 1.43 49
11 07/18/2023 09:32:48 -75.13,-156.81 125.40 07/18/2023 09:33:48 -75.11,-156.78 125.44 3.09 60
12 07/18/2023 10:23:36 75.25, 10.15 54.76 07/18/2023 10:24:49 75.19, 10.71 54.63 17.62 73
13 07/18/2023 11:14:30 -75.70, 176.08 124.71 07/18/2023 11:15:35 -75.65, 179.50 125.02 94.30 65



Historial Predications of SNOs between NOAA-20 and NOAA-19
